Flight Track Log - Related Links

Times and Time Zones

All times are in EDT time to prevent confusion due to time zone crossing. See the N934DL flight status page for this flight to view local times or setup timezone preferences in your user account.

Time Position Orientation Groundspeed Altitude Reporting Facility
EDT Latitude Longitude Course Direction KTS MPH feet Rate Location/Type
Sun 04:14:21 PM 44.8486 -93.2328 164° South 148 170 2,600  Level FAA TRACON SMA TRACON (SMA)
Sun 04:14:41 PM 44.8339 -93.2269 164° South 169 194 2,800 1,200 Climbing FAA TRACON SMA TRACON (SMA)
Sun 04:15:01 PM 44.8181 -93.2119 146° Southeast 210 242 3,400 2,250 Climbing FAA TRACON SMA TRACON (SMA)
Sun 04:15:21 PM 44.7967 -93.1886 142° Southeast 249 287 4,300 2,850 Climbing FAA TRACON SMA TRACON (SMA)
Sun 04:15:41 PM 44.7786 -93.1683 141° Southeast 268 308 5,300 2,850 Climbing FAA TRACON SMA TRACON (SMA)
Sun 04:16:01 PM 44.7606 -93.1464 139° Southeast 278 320 6,200 3,000 Climbing FAA TRACON SMA TRACON (SMA)
Sun 04:16:21 PM 44.7364 -93.1181 140° Southeast 291 335 7,300 3,450 Climbing FAA TRACON SMA TRACON (SMA)
Sun 04:16:41 PM 44.7169 -93.0953 140° Southeast 298 343 8,500 3,150 Climbing FAA TRACON SMA TRACON (SMA)
Sun 04:17:01 PM 44.6956 -93.0756 147° Southeast 297 342 9,400 2,780 Climbing FAA TRACON SMA TRACON (SMA)
Sun 04:17:22 PM 44.6656 -93.0614 161° South 300 345 10,400 2,195 Climbing FAA TRACON SMA TRACON (SMA)
Sun 04:17:42 PM 44.6389 -93.0531 167° South 312 359 10,900 1,650 Climbing FAA TRACON SMA TRACON (SMA)
Sun 04:18:02 PM 44.6033 -93.0403 166° South 339 390 11,500 1,538 Climbing FAA TRACON SMA TRACON (SMA)
Sun 04:18:21 PM 44.5731 -93.0294 166° South 359 413 11,900 1,692 Climbing FAA TRACON SMA TRACON (SMA)
Sun 04:18:41 PM 44.5408 -93.0181 166° South 380 437 12,600 2,400 Climbing FAA TRACON SMA TRACON (SMA)
Sun 04:19:01 PM 44.5086 -93.0061 165° South 391 450 13,500 2,850 Climbing FAA TRACON SMA TRACON (SMA)
Sun 04:19:21 PM 44.4678 -92.9906 165° South 396 456 14,500 2,700 Climbing FAA TRACON SMA TRACON (SMA)
Sun 04:19:41 PM 44.4339 -92.9797 167° South 403 464 15,300 2,250 Climbing FAA TRACON SMA TRACON (SMA)
Sun 04:20:01 PM 44.3994 -92.9681 166° South 411 473 16,000 2,850 Climbing FAA TRACON SMA TRACON (SMA)
Sun 04:20:21 PM 44.3561 -92.9528 166° South 417 480 17,200 3,000 Climbing FAA TRACON SMA TRACON (SMA)
Sun 04:20:41 PM 44.3214 -92.9406 166° South 418 481 18,000 2,400 Climbing FAA TRACON SMA TRACON (SMA)
Sun 04:21:01 PM 44.2864 -92.9283 166° South 421 484 18,800 2,400 Climbing FAA TRACON SMA TRACON (SMA)
Sun 04:21:21 PM 44.2428 -92.9081 162° South 428 493 19,600 1,950 Climbing FAA TRACON SMA TRACON (SMA)
Sun 04:21:41 PM 44.2086 -92.8847 154° Southeast 439 505 20,100 1,500 Climbing FAA TRACON SMA TRACON (SMA)
Sun 04:22:01 PM 44.1736 -92.8617 155° Southeast 450 518 20,600 1,950 Climbing FAA TRACON SMA TRACON (SMA)
Sun 04:22:21 PM 44.1300 -92.8303 153° Southeast 458 527 21,400 2,250 Climbing FAA TRACON SMA TRACON (SMA)
Sun 04:22:41 PM 44.0953 -92.8042 152° Southeast 460 529 22,100 2,250 Climbing FAA TRACON SMA TRACON (SMA)
Sun 04:23:01 PM 44.0511 -92.7728 153° Southeast 464 534 22,900 1,756 Climbing FAA TRACON SMA TRACON (SMA)
Sun 04:23:22 PM 44.0150 -92.7486 154° Southeast 468 539 23,300 1,650 Climbing FAA TRACON SMA TRACON (SMA)
Sun 04:23:41 PM 43.9789 -92.7222 152° Southeast 473 544 24,000 2,712 Climbing FAA TRACON SMA TRACON (SMA)
Sun 04:25:06 PM 43.8169 -92.6194 155° Southeast 464 534 28,000 2,055 Climbing Minneapolis Center
Sun 04:26:07 PM 43.7150 -92.5836 166° South 444 511 29,000 488 Climbing Minneapolis Center
Sun 04:27:09 PM 43.5733 -92.5636 174° South 431 496 29,000  Level Minneapolis Center
Sun 04:28:11 PM 43.4547 -92.5442 173° South 432 497 29,000  Level Minneapolis Center
Sun 04:29:13 PM 43.3375 -92.5247 173° South 430 495 29,000  Level Minneapolis Center
Sun 04:30:15 PM 43.2189 -92.5075 174° South 432 497 29,000  Level Minneapolis Center
Sun 04:31:17 PM 43.1000 -92.4883 173° South 432 497 29,000  Level Minneapolis Center
Sun 04:32:19 PM 42.9569 -92.4653 173° South 434 499 29,000  Level Minneapolis Center
Sun 04:33:20 PM 42.8381 -92.4453 173° South 437 503 29,000  Level Minneapolis Center
Sun 04:34:22 PM 42.7181 -92.4261 173° South 438 504 29,000  Level Minneapolis Center
Sun 04:35:24 PM 42.5994 -92.4064 173° South 437 503 29,000  Level Minneapolis Center
Sun 04:36:26 PM 42.4806 -92.4036 179° South 434 499 29,000  Level Minneapolis Center
Sun 04:37:28 PM 42.3386 -92.4183 184° South 431 496 29,000  Level Minneapolis Center
Sun 04:38:30 PM 42.2194 -92.4281 183° South 432 497 29,000  Level Minneapolis Center
Sun 04:39:16 PM 42.1247 -92.4347 183° South 429 494 29,000  Level Chicago Center
Sun 04:40:18 PM 42.0061 -92.4428 183° South 430 495 29,000  Level Chicago Center
Sun 04:41:20 PM 41.8875 -92.4528 184° South 430 495 29,000  Level Chicago Center
Sun 04:42:22 PM 41.7692 -92.4622 183° South 430 495 29,000  Level Chicago Center
Sun 04:43:24 PM 41.6275 -92.4706 183° South 428 493 29,000  Level Chicago Center
Sun 04:44:26 PM 41.5089 -92.4803 184° South 429 494 29,000  Level Chicago Center
Sun 04:45:28 PM 41.3856 -92.4542 171° South 432 497 29,000  Level Chicago Center
Sun 04:46:31 PM 41.2867 -92.3747 149° Southeast 449 517 29,000  Level Chicago Center
Sun 04:47:33 PM 41.1733 -92.2856 149° Southeast 444 511 29,000  Level Chicago Center
Sun 04:48:35 PM 41.0661 -92.2039 150° Southeast 445 512 29,000  Level Chicago Center
Sun 04:49:37 PM 40.9564 -92.1200 150° Southeast 453 521 29,000  Level Chicago Center
Sun 04:50:39 PM 40.8247 -92.0197 150° Southeast 457 526 29,000  Level Chicago Center
Sun 04:51:41 PM 40.7158 -91.9350 149° Southeast 456 525 29,000  Level Chicago Center
Sun 04:52:43 PM 40.6069 -91.8500 149° Southeast 455 524 29,000  Level Chicago Center
Sun 04:53:43 PM 40.4981 -91.7672 150° Southeast 452 520 29,000  Level Kansas City Center
Sun 04:54:43 PM 40.3889 -91.6842 150° Southeast 454 522 29,000  Level Kansas City Center
Sun 04:55:45 PM 40.2814 -91.6019 150° Southeast 451 519 29,000  Level Kansas City Center
Sun 04:56:49 PM 40.1731 -91.5197 150° Southeast 450 518 29,000 -97 Level Kansas City Center
Sun 04:57:49 PM 40.0647 -91.4386 150° Southeast 450 518 28,800 -1,415 Descending Kansas City Center
Sun 04:58:52 PM 39.9383 -91.3431 150° Southeast 443 510 26,100 -2,565 Descending Kansas City Center
Sun 04:59:53 PM 39.8356 -91.2664 150° Southeast 434 499 23,500 -2,208 Descending Kansas City Center
Sun 05:00:57 PM 39.7325 -91.1892 150° Southeast 424 488 21,500 -2,129 Descending Kansas City Center
Sun 05:01:57 PM 39.6386 -91.1069 146° Southeast 412 474 19,100 -2,311 Descending Kansas City Center
Sun 05:02:59 PM 39.5461 -91.0325 148° Southeast 397 457 16,800 -2,112 Descending Kansas City Center
Sun 05:04:02 PM 39.4611 -90.9583 146° Southeast 377 434 14,700 -2,195 Descending Kansas City Center
Sun 05:04:21 PM 39.4164 -90.8667 122° Southeast 350 403 13,800 -2,308 Descending FAA TRACON SMA TRACON (SMA)
Sun 05:04:41 PM 39.3914 -90.8472 149° Southeast 342 394 13,200 -2,000 Descending FAA TRACON SMA TRACON (SMA)
Sun 05:05:00 PM 39.3675 -90.8267 146° Southeast 338 389 12,500 -2,100 Descending FAA TRACON SMA TRACON (SMA)
Sun 05:05:21 PM 39.3372 -90.8028 149° Southeast 332 382 11,800 -1,902 Descending FAA TRACON SMA TRACON (SMA)
Sun 05:05:41 PM 39.3122 -90.7853 152° Southeast 331 381 11,200 -1,692 Descending FAA TRACON SMA TRACON (SMA)
Sun 05:06:00 PM 39.2869 -90.7711 157° South 324 373 10,700 -1,500 Descending FAA TRACON SMA TRACON (SMA)
Sun 05:06:21 PM 39.2539 -90.7619 168° South 319 367 10,200 -878 Descending FAA TRACON SMA TRACON (SMA)
Sun 05:06:41 PM 39.2294 -90.7536 165° South 306 352 10,100 -462 Descending FAA TRACON SMA TRACON (SMA)
Sun 05:07:00 PM 39.2067 -90.7436 161° South 288 331 9,900 -1,200 Descending FAA TRACON SMA TRACON (SMA)
Sun 05:07:21 PM 39.1800 -90.7264 153° Southeast 279 321 9,300 -1,463 Descending FAA TRACON SMA TRACON (SMA)
Sun 05:07:41 PM 39.1592 -90.7094 148° Southeast 283 326 8,900 -1,231 Descending FAA TRACON SMA TRACON (SMA)
Sun 05:08:00 PM 39.1383 -90.6939 150° Southeast 283 326 8,500 -1,200 Descending FAA TRACON SMA TRACON (SMA)
Sun 05:08:21 PM 39.1128 -90.6736 148° Southeast 281 323 8,100 -1,024 Descending FAA TRACON SMA TRACON (SMA)
Sun 05:08:41 PM 39.0931 -90.6569 147° Southeast 275 316 7,800 -1,077 Descending FAA TRACON SMA TRACON (SMA)
Sun 05:09:00 PM 39.0733 -90.6417 149° Southeast 271 312 7,400 -1,500 Descending FAA TRACON SMA TRACON (SMA)
Sun 05:09:21 PM 39.0483 -90.6217 148° Southeast 273 314 6,800 -1,610 Descending FAA TRACON SMA TRACON (SMA)
Sun 05:09:41 PM 39.0289 -90.6053 147° Southeast 272 313 6,300 -1,231 Descending FAA TRACON SMA TRACON (SMA)
Sun 05:10:00 PM 39.0094 -90.5894 148° Southeast 269 310 6,000 -1,350 Descending FAA TRACON SMA TRACON (SMA)
Sun 05:10:21 PM 38.9856 -90.5711 149° Southeast 263 303 5,400 -1,610 Descending FAA TRACON SMA TRACON (SMA)
Sun 05:10:41 PM 38.9667 -90.5561 148° Southeast 260 299 4,900 -1,500 Descending FAA TRACON SMA TRACON (SMA)
Sun 05:11:01 PM 38.9472 -90.5414 150° Southeast 260 299 4,400 -1,692 Descending FAA TRACON SMA TRACON (SMA)
Sun 05:11:20 PM 38.9244 -90.5228 148° Southeast 256 295 3,800 -1,350 Descending FAA TRACON SMA TRACON (SMA)
Sun 05:11:41 PM 38.9050 -90.5092 151° Southeast 255 293 3,500 -439 Descending FAA TRACON SMA TRACON (SMA)
Sun 05:12:01 PM 38.8875 -90.4944 147° Southeast 249 287 3,500  Level FAA TRACON SMA TRACON (SMA)
Sun 05:12:20 PM 38.8669 -90.4769 146° Southeast 232 267 3,500 -450 Level FAA TRACON SMA TRACON (SMA)
Sun 05:12:41 PM 38.8511 -90.4642 148° Southeast 222 255 3,200 -878 Descending FAA TRACON SMA TRACON (SMA)
Sun 05:13:01 PM 38.8358 -90.4519 148° Southeast 214 246 2,900 -923 Descending FAA TRACON SMA TRACON (SMA)
Sun 05:13:20 PM 38.8183 -90.4372 147° Southeast 198 228 2,600 -750 Descending FAA TRACON SMA TRACON (SMA)
Sun 05:13:41 PM 38.8056 -90.4267 147° Southeast 182 209 2,400 -585 Descending FAA TRACON SMA TRACON (SMA)
Sun 05:14:01 PM 38.7942 -90.4136 138° Southeast 177 204 2,200 -923 Descending FAA TRACON SMA TRACON (SMA)
Sun 05:14:20 PM 38.7839 -90.3947 125° Southeast 169 194 1,800 -878 Descending FAA TRACON SMA TRACON (SMA)
Sun 05:14:42 PM 38.7769 -90.3806 122° Southeast 157 181 1,600 -667 Descending FAA TRACON SMA TRACON (SMA)
Sun 05:15:05 PM 38.7686 -90.3642 123° Southeast 144 166 1,300 -714 Descending FAA TRACON SMA TRACON (SMA)
Sun 05:15:24 PM 38.7619 -90.3508 123° Southeast 143 165 1,100 -833 Descending FAA TRACON SMA TRACON (SMA)
Sun 05:15:41 PM 38.7556 -90.3378 122° Southeast 144 166 800 -811 Descending FAA TRACON SMA TRACON (SMA)
Sun 05:16:01 PM 38.7492 -90.3247 122° Southeast 140 161 600 -600 Descending FAA TRACON SMA TRACON (SMA)
Sun 05:18:00 PM 38.7333 -90.3667 256° West  Level FlightAware Approximate

Login

Don't have an account? Register now (free) for customized features, flight alerts, and more!